EUTELSAT 7B

Last updated on Thu Nov 21 2024 00:02:42 GMT+0000 (Coordinated Universal Time)

1 39163U 13022A 24324.58191471 .00000050 00000+0 00000+0 0 9994 2 39163 0.0693 4.3622 0004130 306.9683 324.2872 1.00273077 42193
UTC large
Height (km)
Speed (km/s)
/
Latitude / Longitude
Inclination (degrees)
Orbital Period (minutes)
Azimuth
Elevation
Range (km)
Doppler Factor

Next 0 passes for location: London (51.5072 / 0.1276)

Sorry there are no passes over London.